[[{"header":{"parameterUnit":"m.s-1","parameterCategory":1,"la1":30.2991,"la2":30.254,"lo1":-89.0895,"lo2":-89.0444,"dy":0.0017,"dx":0.0017,"nx":28,"ny":28,"refTime":"2023-10-22T03:00:00:Z","depth":0,"parameterNumber":2,"parameterNumberName":"U-component_of_WINDS"},"data":[0,0,0,0,0,0,0,0,0,0,0,0,0,0,0,0,0,0,0,0,0,0,0,0,0,0,0,0,0,0,0,0,0,0,0,0,0,0,0,0,0,0,0,0,0,0,0,0,0,0,0,0,0,0,0,0,0,0,0.2563,0.2564,0,0.2608,0.2608,0.2609,0.2586,0.2584,0.2583,0.2582,0.2629,0.2631,0.2633,0,0,0,0,0,0,0,0,0,0,0,0,0,0.246,0.2462,0.2563,0.2564,0.2564,0.2608,0.2608,0.2609,0.2586,0.2584,0.2583,0.2581,0.2628,0.2631,0.2633,0,0,0,0,0,0,0,0,0,0,0,0,0,0.2504,0.2462,0.2563,0.2558,0.2558,0.2607,0.2608,0.2609,0.2586,0.2584,0.2582,0.2581,0.2627,0.263,0.2634,0.2691,0,0,0.2645,0.2646,0,0,0,0,0,0,0,0,0.2502,0.2508,0.2558,0.2558,0.2558,0.2589,0.2589,0.2637,0.2586,0.2575,0.2582,0.258,0.2617,0.2621,0.2634,0.2693,0.2695,0.2645,0.2647,0.2649,0.265,0,0,0,0,0,0,0,0.2499,0.2506,0.2581,0.2559,0.2559,0.2554,0.2558,0.2598,0.2606,0.2576,0.2575,0.258,0.2617,0.263,0.2634,0.2696,0.2645,0.2648,0.265,0.2651,0.2807,0.2809,0,0,0,0,0,0,0.2496,0.2504,0.2579,0.2582,0.2525,0.2557,0.2562,0.2581,0.2605,0.2607,0.2582,0.2579,0.2625,0.263,0.2636,0.2706,0.2648,0.2652,0.2654,0.2805,0.2807,0.2809,0,0,0,0,0,0,0.2494,0.2503,0.2578,0.2543,0.2552,0.2561,0.2582,0.2583,0.2596,0.2609,0.2611,0.2594,0.2624,0.2631,0.2678,0.2707,0.2653,0.2657,0.2802,0.2806,0.2808,0.2846,0,0,0,0,0,0,0.2491,0.2502,0.2524,0.2543,0.2554,0.2619,0.2584,0.2585,0.2602,0.2599,0.2621,0.2623,0.2623,0.2673,0.2681,0.2711,0.2659,0.28,0.2804,0.2807,0.2842,0.285,0.2856,0,0,0,0,0,0.2487,0.2532,0.2525,0.2534,0.2581,0.262,0.2626,0.2625,0.2605,0.2627,0.2635,0.2622,0.2702,0.2678,0.2687,0.2719,0.2798,0.2803,0.2807,0.2839,0.2848,0.2856,0,0,0,0,0,0,0.2516,0.2535,0.2527,0.258,0.2599,0.2616,0.2644,0.2635,0.266,0.2656,0.2654,0.2659,0.2708,0.2718,0.269,0.2776,0.2747,0.2754,0.2768,0.2777,0.2784,0.2782,0.2662,0,0,0,0,0,0.2529,0.2559,0.2574,0.2619,0.2629,0.2635,0.2652,0.2649,0.2669,0.2677,0.2689,0.2709,0.2738,0.2758,0.2786,0.2843,0.2848,0.2869,0.2876,0.2882,0.2888,0.2921,0.2931,0.2824,0.2824,0.2824,0,0,0.2555,0.2569,0.2588,0.2625,0.2639,0.2671,0.2642,0.2676,0.27,0.2682,0.2728,0.2737,0.2759,0.2812,0.2835,0.2821,0.2919,0.2888,0.2893,0.2896,0.2926,0.2937,0.2946,0.2827,0.2827,0.2826,0,0,0.262,0.2633,0.2672,0.2687,0.271,0.2713,0.2723,0.2742,0.2748,0.2793,0.2781,0.2809,0.286,0.2877,0.2892,0.2964,0.2953,0.2973,0.3011,0.3042,0.3051,0.3058,0.3085,0.3095,0.2978,0.2979,0.2979,0,0.265,0.2697,0.2694,0.273,0.2747,0.2732,0.2773,0.2788,0.2818,0.2831,0.2814,0.2879,0.2892,0.2949,0.2967,0.2979,0.2991,0.2971,0.3049,0.3057,0.3064,0.309,0.31,0.2981,0.2981,0.298,0.298,0,0.2734,0.2767,0.2796,0.2826,0.2846,0.2885,0.2888,0.2909,0.2905,0.2911,0.2958,0.2973,0.3005,0.3018,0.3014,0.3075,0.3066,0.3049,0.3021,0.3077,0.3101,0.311,0.2984,0.2983,0.2983,0.2982,0,0,0.2819,0.2846,0.2857,0.2871,0.2895,0.2921,0.2958,0.2989,0.3008,0.3029,0.3062,0.3105,0.3091,0.3108,0.3106,0.3133,0.3191,0.3114,0.3114,0.3129,0.3261,0.3274,0.3285,0.3183,0.3185,0.3187,0.3259,0,0.2886,0.2952,0.2951,0.3013,0.3044,0.303,0.3063,0.3082,0.3088,0.3116,0.3123,0.3155,0.3132,0.3143,0.3169,0.3178,0.3218,0.3173,0.3215,0.3217,0.3211,0.3298,0.3311,0.3379,0.3269,0.327,0.3271,0,0.2973,0.2998,0.3063,0.3083,0.3096,0.3126,0.3155,0.3181,0.3202,0.3205,0.3224,0.3218,0.3257,0.3226,0.3281,0.3251,0.3268,0.3275,0.3278,0.3283,0.3248,0.3306,0.3401,0.3411,0.3286,0.3285,0.3284,0,0.3031,0.308,0.3126,0.3138,0.3162,0.3183,0.3194,0.3213,0.3232,0.3257,0.327,0.3299,0.3315,0.3338,0.334,0.3317,0.3396,0.3365,0.3401,0.3401,0.3419,0.3418,0.3519,0.3428,0.3428,0.3427,0.3427,0,0.3107,0.3148,0.3152,0.318,0.3226,0.3224,0.3269,0.3278,0.3295,0.3326,0.3315,0.3344,0.3344,0.3373,0.3375,0.3421,0.3428,0.3433,0.3433,0.3434,0.3434,0.3447,0.3442,0.343,0.3429,0.3429,0.3428,0,0.3179,0.3183,0.3233,0.3251,0.3257,0.329,0.3306,0.3333,0.3339,0.3377,0.3386,0.3395,0.3429,0.3433,0.3473,0.3474,0.353,0.3525,0.3524,0.3523,0.3559,0.3556,0.3673,0.3688,0.3586,0.3587,0.3587,0,0.3228,0.3259,0.3282,0.3301,0.3313,0.3345,0.3364,0.3363,0.3384,0.3411,0.3435,0.3468,0.3495,0.3551,0.3561,0.3592,0.3588,0.3626,0.3592,0.3593,0.359,0.3589,0.3593,0.3633,0.3635,0.3635,0.3636,0,0.3316,0.3316,0.3344,0.3374,0.3397,0.342,0.3442,0.3458,0.3461,0.3484,0.3519,0.354,0.3581,0.3615,0.3645,0.3657,0.3648,0.3647,0.3657,0.3659,0.3658,0.3661,0.3543,0.3644,0.3643,0.3643,0.3642,0.3642,0.3379,0.3406,0.3426,0.3458,0.3475,0.3495,0.3522,0.3531,0.356,0.3594,0.3591,0.363,0.3651,0.3691,0.3705,0.3736,0.3723,0.3738,0.3742,0.3746,0.375,0.3652,0.3741,0.3741,0.3741,0.3741,0.3741,0,0.3467,0.3479,0.3508,0.3539,0.3565,0.3553,0.3576,0.3599,0.3633,0.3653,0.368,0.3721,0.3753,0.3766,0.3798,0.3821,0.3817,0.3829,0.3828,0.3832,0.3759,0.3747,0.3832,0.3832,0.3832,0.3832,0.3832,0.3832,0.3516,0.3562,0.3565,0.362,0.3632,0.367,0.3685,0.3704,0.372,0.3766,0.3793,0.3801,0.3819,0.3852,0.3882,0.3885,0.3898,0.3912,0.3914,0.3846,0.3837,0.3828,0.3817,0.3915,0.3915,0.3984,0.3985,0.3985]},{"header":{"parameterUnit":"m.s-1","parameterCategory":1,"la1":30.2991,"la2":30.254,"lo1":-89.0895,"lo2":-89.0444,"dy":0.0017,"dx":0.0017,"nx":28,"ny":28,"refTime":"2023-10-22T03:00:00:Z","depth":0,"parameterNumber":3,"parameterNumberName":"V-component_of_WINDS"},"data":[0,0,0,0,0,0,0,0,0,0,0,0,0,0,0,0,0,0,0,0,0,0,0,0,0,0,0,0,0,0,0,0,0,0,0,0,0,0,0,0,0,0,0,0,0,0,0,0,0,0,0,0,0,0,0,0,0,0,-0.5269,-0.5269,0,-0.5257,-0.5257,-0.5257,-0.5239,-0.5239,-0.5239,-0.5238,-0.5226,-0.5225,-0.5225,0,0,0,0,0,0,0,0,0,0,0,0,0,-0.5277,-0.5277,-0.5269,-0.5269,-0.5269,-0.5257,-0.5257,-0.5257,-0.5239,-0.5239,-0.5238,-0.5238,-0.5226,-0.5225,-0.5225,0,0,0,0,0,0,0,0,0,0,0,0,0,-0.527,-0.5277,-0.5269,-0.5259,-0.5258,-0.5257,-0.5257,-0.5257,-0.5239,-0.5239,-0.5238,-0.5238,-0.5226,-0.5225,-0.5225,-0.5234,0,0,-0.5225,-0.5225,0,0,0,0,0,0,0,0,-0.5271,-0.527,-0.526,-0.5259,-0.5258,-0.5249,-0.5255,-0.5249,-0.5239,-0.5246,-0.5238,-0.5238,-0.5234,-0.5233,-0.5232,-0.5233,-0.5233,-0.5225,-0.5225,-0.5225,-0.5225,0,0,0,0,0,0,0,-0.5271,-0.5271,-0.5264,-0.526,-0.5259,-0.5255,-0.5253,-0.5254,-0.5243,-0.5246,-0.5244,-0.5243,-0.5233,-0.5232,-0.5231,-0.5233,-0.5225,-0.5225,-0.5225,-0.5225,-0.5241,-0.5242,0,0,0,0,0,0,-0.5273,-0.5271,-0.5265,-0.5264,-0.5264,-0.5255,-0.5253,-0.5253,-0.5243,-0.5241,-0.5244,-0.5242,-0.5232,-0.5231,-0.5231,-0.524,-0.5225,-0.5225,-0.5225,-0.5241,-0.5241,-0.5242,0,0,0,0,0,0,-0.5274,-0.5273,-0.5265,-0.5267,-0.5266,-0.5255,-0.5255,-0.5253,-0.5251,-0.5241,-0.5239,-0.5244,-0.5232,-0.5231,-0.5233,-0.5239,-0.5225,-0.5225,-0.524,-0.5241,-0.5242,-0.5259,0,0,0,0,0,0,-0.5274,-0.5273,-0.5276,-0.5267,-0.5266,-0.5268,-0.5255,-0.5253,-0.5251,-0.525,-0.5241,-0.5239,-0.5231,-0.5234,-0.5233,-0.5239,-0.5225,-0.524,-0.5241,-0.5241,-0.5258,-0.526,-0.5262,0,0,0,0,0,-0.5274,-0.5282,-0.5276,-0.5276,-0.5269,-0.5269,-0.5268,-0.5258,-0.5252,-0.5255,-0.5248,-0.524,-0.5239,-0.5234,-0.5234,-0.5239,-0.5239,-0.524,-0.5241,-0.5257,-0.526,-0.5262,0,0,0,0,0,0,-0.5291,-0.528,-0.5274,-0.5279,-0.5275,-0.5266,-0.5269,-0.5262,-0.5259,-0.5258,-0.5246,-0.5244,-0.5249,-0.5244,-0.5239,-0.5247,-0.5238,-0.5239,-0.525,-0.5253,-0.5255,-0.5256,-0.5225,0,0,0,0,0,-0.5295,-0.5295,-0.5286,-0.5291,-0.5289,-0.528,-0.5279,-0.5272,-0.5267,-0.5265,-0.5259,-0.5255,-0.5254,-0.5253,-0.5251,-0.5258,-0.5256,-0.5261,-0.5264,-0.5266,-0.5266,-0.527,-0.5272,-0.5245,-0.5245,-0.5245,0,0,-0.5304,-0.5298,-0.5299,-0.5294,-0.529,-0.5291,-0.5278,-0.5279,-0.5279,-0.5265,-0.5267,-0.5263,-0.5257,-0.5262,-0.5264,-0.5258,-0.5274,-0.5267,-0.5269,-0.5268,-0.5271,-0.5274,-0.5276,-0.5246,-0.5246,-0.5246,0,0,-0.532,-0.5316,-0.5319,-0.5316,-0.531,-0.5304,-0.5305,-0.5297,-0.5293,-0.5295,-0.5285,-0.5285,-0.5283,-0.528,-0.5278,-0.5293,-0.5285,-0.5293,-0.5305,-0.5308,-0.531,-0.5312,-0.5318,-0.532,-0.5294,-0.5294,-0.5294,0,-0.5331,-0.5331,-0.5322,-0.5324,-0.5322,-0.531,-0.5314,-0.5311,-0.5305,-0.5304,-0.5298,-0.5296,-0.5292,-0.5295,-0.5299,-0.5298,-0.5299,-0.5294,-0.5311,-0.5312,-0.5314,-0.5319,-0.5321,-0.5295,-0.5295,-0.5295,-0.5295,0,-0.5346,-0.5346,-0.535,-0.5345,-0.5344,-0.5346,-0.5337,-0.5337,-0.5331,-0.5326,-0.5328,-0.5322,-0.5319,-0.532,-0.5313,-0.5323,-0.532,-0.5313,-0.5303,-0.5318,-0.5322,-0.5324,-0.5297,-0.5296,-0.5296,-0.5296,0,0,-0.5371,-0.5361,-0.5362,-0.536,-0.5353,-0.5354,-0.5356,-0.5354,-0.5354,-0.535,-0.5352,-0.5351,-0.5345,-0.5343,-0.5336,-0.5339,-0.5352,-0.5332,-0.5331,-0.5335,-0.5362,-0.5367,-0.5369,-0.5347,-0.5347,-0.5348,-0.5362,0,-0.5385,-0.5388,-0.538,-0.5386,-0.5386,-0.5376,-0.5378,-0.5374,-0.5369,-0.5369,-0.5363,-0.5363,-0.5354,-0.5353,-0.5356,-0.535,-0.5357,-0.5349,-0.5348,-0.5348,-0.535,-0.5372,-0.5377,-0.5391,-0.5364,-0.5364,-0.5365,0,-0.5402,-0.54,-0.5405,-0.5399,-0.5399,-0.5401,-0.5398,-0.5398,-0.5394,-0.539,-0.5388,-0.538,-0.5382,-0.5374,-0.5376,-0.5371,-0.537,-0.5368,-0.5368,-0.5367,-0.5357,-0.5371,-0.5396,-0.5398,-0.5367,-0.5367,-0.5367,0,-0.5419,-0.5418,-0.5421,-0.5419,-0.5412,-0.5414,-0.5411,-0.5406,-0.5405,-0.5403,-0.5402,-0.54,-0.5399,-0.5398,-0.539,-0.5384,-0.5394,-0.5384,-0.5391,-0.5391,-0.5393,-0.5393,-0.5417,-0.5393,-0.5393,-0.5393,-0.5393,0,-0.5436,-0.5439,-0.5429,-0.5431,-0.5435,-0.5426,-0.543,-0.5426,-0.5422,-0.5423,-0.5414,-0.5415,-0.5405,-0.5405,-0.5399,-0.5403,-0.5402,-0.5399,-0.5398,-0.54,-0.54,-0.5399,-0.5398,-0.5394,-0.5394,-0.5394,-0.5394,0,-0.5455,-0.5448,-0.5451,-0.5444,-0.5443,-0.5446,-0.544,-0.5442,-0.5437,-0.5438,-0.5438,-0.543,-0.543,-0.5422,-0.542,-0.5416,-0.5422,-0.5419,-0.5424,-0.5422,-0.5429,-0.5429,-0.5453,-0.5456,-0.5431,-0.5431,-0.5432,0,-0.5466,-0.5469,-0.5462,-0.5463,-0.546,-0.546,-0.546,-0.5451,-0.5451,-0.5447,-0.5449,-0.5448,-0.5447,-0.5447,-0.5441,-0.544,-0.5437,-0.5445,-0.5436,-0.5439,-0.5436,-0.5436,-0.5437,-0.5447,-0.5447,-0.5448,-0.5448,0,-0.5486,-0.5482,-0.5482,-0.548,-0.548,-0.5478,-0.5476,-0.5476,-0.5467,-0.5468,-0.5467,-0.5467,-0.5465,-0.5464,-0.5462,-0.5459,-0.5452,-0.5451,-0.5452,-0.5454,-0.5457,-0.5456,-0.5429,-0.545,-0.545,-0.545,-0.545,-0.545,-0.5501,-0.5503,-0.5499,-0.5499,-0.5497,-0.5495,-0.5496,-0.5492,-0.5491,-0.549,-0.5485,-0.5486,-0.5482,-0.5478,-0.5476,-0.5476,-0.5472,-0.5474,-0.5475,-0.5475,-0.5477,-0.5458,-0.5476,-0.5476,-0.5476,-0.5476,-0.5476,0,-0.552,-0.5517,-0.5517,-0.5514,-0.5514,-0.5508,-0.5506,-0.5506,-0.5507,-0.5504,-0.5503,-0.5504,-0.5503,-0.5498,-0.5497,-0.5498,-0.5495,-0.5498,-0.5498,-0.5497,-0.5481,-0.5479,-0.5501,-0.5501,-0.5501,-0.5501,-0.5501,-0.5501,-0.553,-0.5533,-0.5529,-0.5532,-0.5529,-0.553,-0.5529,-0.5527,-0.5525,-0.5526,-0.5525,-0.5522,-0.5518,-0.5517,-0.5516,-0.5515,-0.5515,-0.5519,-0.5516,-0.5501,-0.5498,-0.5496,-0.5495,-0.5519,-0.5519,-0.5533,-0.5533,-0.5533]}]]